This demonstration page uses our WeatherBlox Daily Observations layout. Learn more.

Left ArrowRight Arrow

Hourly Observations for October 13, 2019

Temp ( °F °C ) Dew Point ( °F °C ) Humidity (%) Winds ( mph kmh ) Pressure ( in mb ) Visibility ( mi km ) Precip ( " mm )
12:53 am 00:53 Clear 55 12.8 27 -2.8 34 34 ESE 8 13 29.91 1013 10 16 0.00 0.00
1:53 am 01:53 Clear 53 11.7 26 -3.3 35 35 E 5 7 29.91 1013 10 16 0.00 0.00
2:53 am 02:53 Clear 49 9.4 26 -3.3 41 41 ENE 3 6 29.91 1013 10 16 0.00 0.00
3:53 am 03:53 Clear 45 7.2 26 -3.3 48 48 NE 6 9 29.91 1013 10 16 0.00 0.00
4:53 am 04:53 Clear 44 6.7 27 -2.8 51 51 N 5 7 29.90 1013 10 16 0.00 0.00
5:53 am 05:53 Clear 44 6.7 29 -1.7 55 55 Calm 29.91 1013 10 16 0.00 0.00
6:53 am 06:53 Clear 43 6.1 29 -1.7 58 58 Calm 29.91 1013 10 16 0.00 0.00
7:53 am 07:53 Clear 42 5.6 29 -1.7 60 60 NNE 6 9 29.93 1014 10 16 0.00 0.00
8:53 am 08:53 Sunny 49 9.4 30 -1.1 48 48 N 7 11 29.94 1014 10 16 0.00 0.00
9:53 am 09:53 Sunny 56 13.3 32 0 40 40 ENE 3 6 29.96 1014 10 16 0.00 0.00
10:53 am 10:53 Sunny 64 17.8 33 0.6 32 32 Calm 29.95 1014 10 16 0.00 0.00
11:53 am 11:53 Sunny 73 22.8 38 3.3 28 28 WNW 6 9 29.93 1014 10 16 0.00 0.00
12:53 pm 12:53 Sunny 78 25.6 39 3.9 25 25 VRB 6 9 29.91 1013 10 16 0.00 0.00
1:53 pm 13:53 Sunny 84 28.9 37 2.8 19 19 W 13 20 29.87 1012 10 16 0.00 0.00
2:53 pm 14:53 Sunny 85 29.4 34 1.1 16 16 VRB 6 9 29.84 1011 10 16 0.00 0.00
3:53 pm 15:53 Sunny 86 30 32 0 14 14 VRB 7 11 29.83 1010 10 16 0.00 0.00
4:53 pm 16:53 Sunny 86 30 28 -2.2 12 12 WSW 8 13 29.83 1010 10 16 0.00 0.00
5:53 pm 17:53 Sunny 85 29.4 28 -2.2 13 13 WNW 6 9 29.83 1010 10 16 0.00 0.00
6:53 pm 18:53 Sunny 83 28.3 30 -1.1 15 15 Calm 29.85 1011 10 16 0.00 0.00
7:53 pm 19:53 Clear 77 25 33 0.6 20 20 S 6 9 29.86 1011 10 16 0.00 0.00
8:53 pm 20:53 Clear 75 23.9 34 1.1 22 22 S 6 9 29.87 1012 10 16 0.00 0.00
9:53 pm 21:53 Clear 76 24.4 42 5.6 30 30 SSW 13 20 29.87 1012 10 16 0.00 0.00
10:53 pm 22:53 Clear 72 22.2 44 6.7 37 37 SSW 8 13 29.88 1012 10 16 0.00 0.00
11:53 pm 23:53 Clear 67 19.4 43 6.1 42 42 S 5 7 29.88 1012 10 16 0.00 0.00

Powered by AerisWeather